Hourly Data Report for October 01, 2017

All times are specified in Local Standard Time (LST). Add 1 hour to adjust for Daylight Saving Time where and when it is observed.

SYDNEY A
NOVA SCOTIA

46°09'41.000" N
60°02'53.000" W
61.90 m
8205701
71707
YQY

Download Data

Hourly Data (October 2017)
Hourly Data Report for October 1, 2017
Temp Definition
°C
Dew Point Temp Definition
°C
Rel Hum Definition
%
Wind Dir Definition
10's deg

Wind Spd Definition
km/h
Visibility Definition
km
Stn Press Definition
kPa
Hmdx Definition


Wind Chill Definition


Weather Definition


TIME
00:00 Legend Double Dagger 2.0 1.4 96 25 11 24.1 101.55     LegendNANA
01:00 Legend Double Dagger 1.5 0.9 96 25 11 24.1 101.55     LegendNANA
02:00 Legend Double Dagger 1.2 0.4 95 25 11 24.1 101.52     Mainly Clear
03:00 Legend Double Dagger 1.0 0.2 94 23 12 24.1 101.51     LegendNANA
04:00 Legend Double Dagger 0.2 -0.5 96 23 10 24.1 101.49     LegendNANA
05:00 Legend Double Dagger 1.2 0.5 95 22 10 24.1 101.46     Mainly Clear
06:00 Legend Double Dagger 2.6 1.8 95 22 10 24.1 101.43     LegendNANA
07:00 Legend Double Dagger 3.9 2.9 93 24 13 24.1 101.44     LegendNANA
08:00 Legend Double Dagger 8.1 5.2 82 24 12 24.1 101.41     Mainly Clear
09:00 Legend Double Dagger 10.3 6.0 74 23 25 24.1 101.38     LegendNANA
10:00 Legend Double Dagger 12.5 6.4 66 25 26 24.1 101.32     LegendNANA
11:00 Legend Double Dagger 13.7 5.2 56 26 27 24.1 101.22     Mainly Clear
12:00 Legend Double Dagger 13.8 5.5 57 21 26 24.1 101.14     LegendNANA
13:00 Legend Double Dagger 14.4 4.6 51 23 29 24.1 101.04     LegendNANA
14:00 Legend Double Dagger 14.8 3.3 46 23 31 24.1 100.98     Mainly Clear
15:00 Legend Double Dagger 14.8 3.0 45 23 29 24.1 100.94     LegendNANA
16:00 Legend Double Dagger 14.7 3.7 48 24 27 24.1 100.91     LegendNANA
17:00 Legend Double Dagger 13.6 3.8 51 24 19 24.1 100.92     Clear
18:00 Legend Double Dagger 9.8 4.5 69 22 7 24.1 100.96     LegendNANA
19:00 Legend Double Dagger 9.2 4.7 73 20 9 24.1 101.00     LegendNANA
20:00 Legend Double Dagger 8.2 4.8 79 20 9 24.1 101.07     Mainly Clear
21:00 Legend Double Dagger 8.8 5.2 78 22 9 24.1 101.08     LegendNANA
22:00 Legend Double Dagger 10.7 5.7 71 28 18 24.1 101.04     LegendNANA
23:00 Legend Double Dagger 9.5 5.6 77 28 14 24.1 100.98     Clear

Notes on Data Quality.

Legend

  • E = Estimated
  • M = Missing
  • NA = Not Available
  • ‡ = Partner data that is not subject to review by the National Climate Archives
Date modified: